Ukiah, CA

8:37 PM PDT on May 21, 2018 (GMT -0700)
Ukiah Municipal

Weather History for KUKI - September, 2012

Change the Weather History Date:

Tuesday, September 25, 2012

  Actual Average Record
Temperature  
Mean Temperature 73 °F 66 °F  
Max Temperature 95 °F 85 °F 104 °F (1952)
Min Temperature 51 °F 48 °F 36 °F (1920)
Degree Days  
Heating Degree Days 0 2  
Month to date heating degree days 17  
Since 1 July heating degree days 20  
Cooling Degree Days 8 3  
Month to date cooling degree days 117  
Year to date cooling degree days 800  
Growing Degree Days 23 (Base 50)    
Moisture  
Dew Point 45 °F    
Average Humidity 47    
Maximum Humidity 77    
Minimum Humidity 16    
Precipitation  
Precipitation 0.00 in 0.02 in 1.19 in (1990)
Month to date precipitation 0.00 0.37  
Year to date precipitation 18.92 23.89  
Since 1 July precipitation T  
Snow  
Snow 0.00 in - - ()
Month to date snowfall 0.0  
Since 1 July snowfall 0.0  
Since 1 September snowfall 0.0  
Snow Depth -    
Sea Level Pressure  
Sea Level Pressure 29.86 in    
Wind  
Wind Speed 1 mph (NW)    
Max Wind Speed 14 mph    
Max Gust Speed 18 mph    
Visibility 10 miles    
Events      
T = Trace of Precipitation, MM = Missing Value Source: NWS Daily Summary

Daily Weather History Graph

Daily Weather History Graph

Search for Another Location

Airport or City:

Astronomy

Sep. 25, 2012 Rise Set
Actual Time 7:03 AM PDT 7:04 PM PDT
Civil Twilight 6:37 AM PDT 7:30 PM PDT
Nautical Twilight 6:05 AM PDT 8:01 PM PDT
Astronomical Twilight 5:34 AM PDT 8:33 PM PDT
Moon 4:30 PM PDT (9/25) 2:33 AM PDT (9/25)
Length of Visible Light 12h 53m
Length of Day
12h 00m
Waxing Gibbous, 81% of the Moon is Illuminated
Sep 25
Waxing Gibbous
Sep 29
Full
Oct 8
Last Quarter
Oct 15
New
Oct 21
First Quarter

Hourly Weather History & Observations

Time (PDT) Temp. Dew Point Humidity Pressure Visibility Wind Dir Wind Speed Gust Speed Precip Events Conditions
12:56 AM 59.0 °F 46.9 °F 64% 29.89 in 10.0 mi Calm Calm - N/A   Clear
1:56 AM 55.9 °F 45.0 °F 67% 29.90 in 10.0 mi Calm Calm - N/A   Clear
2:56 AM 57.0 °F 46.0 °F 67% 29.89 in 10.0 mi Calm Calm - N/A   Clear
3:56 AM 53.1 °F 46.0 °F 77% 29.88 in 10.0 mi Calm Calm - N/A   Clear
4:56 AM 54.0 °F 45.0 °F 72% 29.89 in 10.0 mi Calm Calm - N/A   Clear
5:56 AM 52.0 °F 45.0 °F 77% 29.90 in 10.0 mi Calm Calm - N/A   Clear
6:56 AM 51.1 °F 45.0 °F 80% 29.91 in 10.0 mi Calm Calm - N/A   Clear
7:56 AM 54.0 °F 45.0 °F 72% 29.92 in 10.0 mi Calm Calm - N/A   Clear
8:56 AM 60.1 °F 46.0 °F 60% 29.92 in 10.0 mi Calm Calm - N/A   Clear
9:56 AM 68.0 °F 46.0 °F 45% 29.91 in 10.0 mi Calm Calm - N/A   Clear
10:56 AM 73.9 °F 46.9 °F 38% 29.90 in 10.0 mi Calm Calm - N/A   Clear
11:56 AM 80.6 °F 44.6 °F 28% 29.90 in 10.0 mi NW 3.5 mph - N/A   Clear
12:56 PM 86.0 °F 46.0 °F 25% 29.85 in 10.0 mi Calm Calm - N/A   Clear
1:56 PM 91.9 °F 41.0 °F 17% 29.82 in 10.0 mi Calm Calm - N/A   Clear
2:56 PM 95.0 °F 43.0 °F 17% 29.80 in 10.0 mi NNW 9.2 mph - N/A   Clear
3:56 PM 93.0 °F 42.1 °F 17% 29.80 in 10.0 mi Variable 5.8 mph - N/A   Clear
4:56 PM 91.4 °F 39.2 °F 16% 29.81 in 10.0 mi Variable 4.6 mph - N/A   Clear
5:56 PM 89.1 °F 39.9 °F 18% 29.80 in 10.0 mi Variable 4.6 mph - N/A   Clear
6:56 PM 82.4 °F 46.4 °F 28% 29.83 in 10.0 mi NNW 8.1 mph - N/A   Clear
7:56 PM 75.2 °F 46.4 °F 36% 29.84 in 10.0 mi South 4.6 mph - N/A   Clear
8:56 PM 70.0 °F 46.0 °F 42% 29.83 in 10.0 mi Calm Calm - N/A   Clear
9:56 PM 66.9 °F 46.9 °F 49% 29.84 in 10.0 mi Calm Calm - N/A   Clear
10:56 PM 64.0 °F 48.9 °F 58% 29.85 in 10.0 mi Calm Calm - N/A   Clear
11:56 PM 61.0 °F 48.0 °F 62% 29.84 in 10.0 mi Calm Calm - N/A   Clear